When you browse on this site, cookies collect data to enhance your experience and personalize the content and advertising you see.
Visit our Privacy Policy to learn more. By continuing to use the site, you agree to this use of cookies and data.
  • In Sweden
  • List of Countries
  • For 7 days
  • Water Temperature
  • Weather Map
  • Weather Widgets
  • user-avatar
    Login

    Hourly Weather Galich

    Today, 2 June, Tuesday

    Time Temperature Precipitation Wind Pressure Humidity
    00:00 +5°C° 0 mm 2 mps 740 mmHg 94%
    01:00 +5°C° 0 mm 2 mps 740 mmHg 95%
    02:00 +5°C° 0 mm 2 mps 739 mmHg 96%
    03:00 +4°C° 0 mm 3 mps 739 mmHg 96%
    04:00 +4°C° 0 mm 3 mps 739 mmHg 96%
    05:00 +4°C° 0 mm 3 mps 738 mmHg 96%
    06:00 +6°C° 0 mm 4 mps 738 mmHg 92%
    07:00 +7°C° 0 mm 5 mps 738 mmHg 87%
    08:00 +10°C° 0 mm 6 mps 737 mmHg 82%
    09:00 +10°C° 0.4 mm 6 mps 737 mmHg 80%
    10:00 +11°C° 0.4 mm 6 mps 737 mmHg 78%
    11:00 +11°C° 0.4 mm 7 mps 736 mmHg 76%
    12:00 +11°C° 0.5 mm 6 mps 736 mmHg 80%
    13:00 +10°C° 0.5 mm 6 mps 736 mmHg 84%
    14:00 +9°C° 0.5 mm 6 mps 736 mmHg 88%
    15:00 +8°C° 0.6 mm 6 mps 736 mmHg 90%
    16:00 +8°C° 0.6 mm 6 mps 735 mmHg 92%
    17:00 +8°C° 0.6 mm 5 mps 735 mmHg 94%
    18:00 +7°C° 1.2 mm 6 mps 735 mmHg 94%
    19:00 +7°C° 1.2 mm 6 mps 735 mmHg 95%
    20:00 +7°C° 1.2 mm 6 mps 735 mmHg 96%
    21:00 +7°C° 0.5 mm 6 mps 734 mmHg 95%
    22:00 +7°C° 0.5 mm 5 mps 734 mmHg 95%
    23:00 +7°C° 0.5 mm 5 mps 734 mmHg 95%

    Tomorrow, 3 June, Wednesday

    Time Temperature Precipitation Wind Pressure Humidity
    00:00 +7°C° 0.6 mm 5 mps 734 mmHg 95%
    01:00 +8°C° 0.6 mm 5 mps 734 mmHg 95%
    02:00 +8°C° 0.6 mm 5 mps 733 mmHg 95%
    03:00 +8°C° 1.1 mm 5 mps 733 mmHg 96%
    04:00 +8°C° 1.1 mm 5 mps 733 mmHg 96%
    05:00 +7°C° 1.1 mm 5 mps 733 mmHg 96%
    06:00 +8°C° 1.1 mm 4 mps 733 mmHg 96%
    07:00 +8°C° 1.1 mm 4 mps 733 mmHg 96%
    08:00 +8°C° 1.1 mm 4 mps 733 mmHg 95%
    09:00 +10°C° 0.5 mm 4 mps 733 mmHg 93%
    10:00 +10°C° 0.5 mm 4 mps 733 mmHg 91%
    11:00 +10°C° 0.5 mm 5 mps 733 mmHg 89%
    12:00 +12°C° 0.6 mm 5 mps 733 mmHg 86%
    13:00 +13°C° 0.6 mm 5 mps 733 mmHg 84%
    14:00 +13°C° 0.6 mm 5 mps 733 mmHg 81%
    15:00 +14°C° 0.4 mm 5 mps 733 mmHg 81%
    16:00 +14°C° 0.4 mm 4 mps 733 mmHg 80%
    17:00 +14°C° 0.4 mm 4 mps 733 mmHg 80%
    18:00 +13°C° 0.1 mm 3 mps 733 mmHg 84%
    19:00 +12°C° 0.1 mm 3 mps 733 mmHg 87%
    20:00 +12°C° 0.1 mm 2 mps 733 mmHg 91%
    21:00 +10°C° 0 mm 2 mps 733 mmHg 92%
    22:00 +9°C° 0 mm 2 mps 733 mmHg 92%
    23:00 +8°C° 0 mm 2 mps 733 mmHg 93%

    Day after tomorrow, 4 June, Thursday

    Time Temperature Precipitation Wind Pressure Humidity
    00:00 +8°C° 0 mm 2 mps 733 mmHg 92%
    01:00 +8°C° 0 mm 2 mps 733 mmHg 92%
    02:00 +8°C° 0 mm 2 mps 733 mmHg 92%
    03:00 +9°C° 0 mm 1 mps 733 mmHg 92%
    04:00 +9°C° 0 mm 1 mps 733 mmHg 91%
    05:00 +9°C° 0 mm 1 mps 733 mmHg 91%
    06:00 +10°C° 0.1 mm 1 mps 733 mmHg 87%
    07:00 +12°C° 0.1 mm 1 mps 733 mmHg 84%
    08:00 +14°C° 0.1 mm 1 mps 733 mmHg 80%
    09:00 +15°C° 0.4 mm 2 mps 733 mmHg 75%
    10:00 +17°C° 0.4 mm 2 mps 733 mmHg 71%
    11:00 +18°C° 0.4 mm 3 mps 733 mmHg 66%
    12:00 +18°C° 0.6 mm 3 mps 733 mmHg 67%
    13:00 +19°C° 0.6 mm 3 mps 732 mmHg 67%
    14:00 +19°C° 0.6 mm 3 mps 732 mmHg 68%
    15:00 +20°C° 0.1 mm 2 mps 732 mmHg 67%
    16:00 +20°C° 0.1 mm 2 mps 732 mmHg 66%
    17:00 +21°C° 0.1 mm 1 mps 732 mmHg 65%
    18:00 +20°C° 0.1 mm 1 mps 732 mmHg 70%
    19:00 +18°C° 0.1 mm 1 mps 732 mmHg 76%
    20:00 +15°C° 0.1 mm 2 mps 732 mmHg 81%
    21:00 +15°C° 0.1 mm 2 mps 732 mmHg 84%
    22:00 +14°C° 0.1 mm 2 mps 732 mmHg 87%
    23:00 +14°C° 0.1 mm 2 mps 732 mmHg 89%

    5 June, Friday

    Time Temperature Precipitation Wind Pressure Humidity
    00:00 +13°C° 0.3 mm 3 mps 732 mmHg 91%
    01:00 +13°C° 0.3 mm 3 mps 731 mmHg 92%
    02:00 +13°C° 0.3 mm 3 mps 731 mmHg 94%
    03:00 +13°C° 0.3 mm 3 mps 731 mmHg 94%
    04:00 +13°C° 0.3 mm 3 mps 731 mmHg 94%
    05:00 +15°C° 0.3 mm 2 mps 731 mmHg 94%
    06:00 +14°C° 0.1 mm 3 mps 731 mmHg 93%
    07:00 +16°C° 0.1 mm 3 mps 731 mmHg 92%
    08:00 +16°C° 0.1 mm 3 mps 732 mmHg 91%
    09:00 +18°C° 0 mm 4 mps 732 mmHg 83%
    10:00 +20°C° 0 mm 5 mps 732 mmHg 75%
    11:00 +22°C° 0 mm 6 mps 732 mmHg 67%
    12:00 +23°C° 0 mm 5 mps 732 mmHg 66%
    13:00 +25°C° 0 mm 5 mps 732 mmHg 66%
    14:00 +25°C° 0 mm 4 mps 732 mmHg 65%
    15:00 +25°C° 0.1 mm 4 mps 732 mmHg 68%
    16:00 +26°C° 0.1 mm 3 mps 732 mmHg 71%
    17:00 +26°C° 0.1 mm 3 mps 732 mmHg 73%
    18:00 +24°C° 0 mm 3 mps 732 mmHg 74%
    19:00 +21°C° 0 mm 3 mps 732 mmHg 75%
    20:00 +19°C° 0 mm 3 mps 732 mmHg 76%
    21:00 +19°C° 0 mm 2 mps 733 mmHg 75%
    22:00 +18°C° 0 mm 2 mps 733 mmHg 74%
    23:00 +17°C° 0 mm 2 mps 734 mmHg 73%

    6 June, Saturday

    Time Temperature Precipitation Wind Pressure Humidity
    00:00 +17°C° 0.1 mm 2 mps 734 mmHg 76%
    01:00 +17°C° 0.1 mm 2 mps 734 mmHg 78%
    02:00 +16°C° 0.1 mm 2 mps 734 mmHg 81%
    03:00 +16°C° 0.1 mm 2 mps 734 mmHg 83%
    04:00 +16°C° 0.1 mm 1 mps 735 mmHg 86%
    05:00 +16°C° 0.1 mm 1 mps 735 mmHg 88%
    06:00 +16°C° 0 mm 1 mps 736 mmHg 90%
    07:00 +16°C° 0 mm 2 mps 736 mmHg 92%
    08:00 +15°C° 0 mm 2 mps 737 mmHg 94%
    09:00 +16°C° 0 mm 2 mps 737 mmHg 92%
    10:00 +17°C° 0 mm 2 mps 738 mmHg 90%
    11:00 +18°C° 0 mm 2 mps 738 mmHg 88%
    12:00 +19°C° 0.1 mm 2 mps 738 mmHg 85%
    13:00 +20°C° 0.1 mm 2 mps 738 mmHg 81%
    14:00 +21°C° 0.1 mm 2 mps 738 mmHg 78%
    15:00 +21°C° 0.4 mm 2 mps 738 mmHg 78%
    16:00 +23°C° 0.4 mm 2 mps 738 mmHg 78%
    17:00 +23°C° 0.4 mm 2 mps 738 mmHg 79%
    18:00 +21°C° 0.5 mm 2 mps 738 mmHg 83%
    19:00 +20°C° 0.5 mm 2 mps 738 mmHg 87%
    20:00 +18°C° 0.5 mm 2 mps 738 mmHg 91%
    21:00 +18°C° 0.1 mm 2 mps 738 mmHg 92%
    22:00 +17°C° 0.1 mm 2 mps 738 mmHg 93%
    23:00 +16°C° 0.1 mm 2 mps 738 mmHg 93%

    7 June, Sunday

    Time Temperature Precipitation Wind Pressure Humidity
    00:00 +16°C° 0.6 mm 2 mps 738 mmHg 95%
    01:00 +16°C° 0.6 mm 2 mps 738 mmHg 96%
    02:00 +16°C° 0.6 mm 2 mps 738 mmHg 97%
    03:00 +16°C° 0.9 mm 2 mps 738 mmHg 97%
    04:00 +18°C° 0.8 mm 1 mps 738 mmHg 97%
    05:00 +18°C° 0.8 mm 1 mps 738 mmHg 98%
    06:00 +17°C° 0.1 mm 2 mps 738 mmHg 96%
    07:00 +18°C° 0.1 mm 2 mps 738 mmHg 95%
    08:00 +19°C° 0.1 mm 2 mps 738 mmHg 94%
    09:00 +20°C° 0.1 mm 2 mps 738 mmHg 90%
    10:00 +21°C° 0.1 mm 2 mps 738 mmHg 87%
    11:00 +22°C° 0.1 mm 3 mps 738 mmHg 83%
    12:00 +22°C° 1 mm 3 mps 738 mmHg 81%
    13:00 +23°C° 1 mm 4 mps 737 mmHg 79%
    14:00 +25°C° 1 mm 5 mps 737 mmHg 78%
    15:00 +23°C° 0.8 mm 5 mps 737 mmHg 78%
    16:00 +23°C° 0.8 mm 5 mps 737 mmHg 79%
    17:00 +23°C° 0.8 mm 6 mps 737 mmHg 80%
    18:00 +22°C° 0.3 mm 5 mps 737 mmHg 82%
    19:00 +20°C° 0.3 mm 4 mps 737 mmHg 84%
    20:00 +19°C° 0.3 mm 4 mps 737 mmHg 87%
    21:00 +19°C° 0 mm 3 mps 737 mmHg 87%
    22:00 +18°C° 0 mm 3 mps 737 mmHg 88%
    23:00 +17°C° 0 mm 2 mps 737 mmHg 89%
    Show more